Regional Weather Roundup
Issued by NWS

Home | Current Version | Previous Version | Text Only | Print | Product List | Glossary Off
Versions: 1 2 3 4 5 6 7 8 9 10 11 12 13 14 15 16 17 18 19 20 21 22 23 24 25 26 27 28 29 30 31 32 33 34 35 36 37 38 39 40 41 42 43 44 45 46 47 48 49 50

000
ASUS43 KMKX 311900
RWRWI

WISCONSIN REGIONAL WEATHER ROUNDUP
NATIONAL WEATHER SERVICE MILWAUKEE/SULLIVAN WI
200 PM CDT FRI OCT 31 2014

NOTE: "FAIR" INDICATES FEW OR NO CLOUDS BELOW 12,000 FEET WITH NO
SIGNIFICANT WEATHER AND/OR OBSTRUCTIONS TO VISIBILITY.

WIZ001-002-006>008-014>016-023>028-312000-
NORTHWEST WISCONSIN

CITY           SKY/WX    TMP DP  RH WIND       PRES   REMARKS
SUPERIOR ARPT  SUNNY     37  20  51 CALM      30.54F
ASHLAND        PTSUNNY   36  22  56 N14       30.52F WCI  27
HAYWARD        MOSUNNY   35  19  52 N9        30.48F WCI  28
SIREN          SUNNY     36  18  48 NE7       30.52F WCI  30
CUMBERLAND     MOSUNNY   34  19  55 N13       30.49F WCI  25
RICE LAKE      MOSUNNY   37  18  45 N14       30.50S WCI  29
CHETEK         MOSUNNY   37  20  50 N9        30.48F WCI  31
LADYSMITH      CLOUDY    36  21  55 N14G21    30.47F WCI  27
EAU CLAIRE     NOT AVBL
MENOMONIE      MOSUNNY   39  17  42 N8G16     30.48F WCI  33
NEW RICHMOND   SUNNY     38  17  42 N6        30.51F WCI  33
OSCEOLA        SUNNY     38  20  49 N9        30.54F WCI  31
$$

WIZ003>005-009-010-017-018-312000-
NORTH CENTRAL WISCONSIN

CITY           SKY/WX    TMP DP  RH WIND       PRES   REMARKS
MANITOWISH WTR FLURRIES  31  24  78 N12G20    30.42S WCI  21
ARBOR VITAE    LGT SNOW  32  28  84 NE9G20    30.41S WCI  24
WOODRUFF       LGT SNOW  32  28  84 NE9G20    30.41S WCI  24
RHINELANDER    MOSUNNY   31  20  63 N17G24    30.40S WCI  19
EAGLE RIVER    PTSUNNY   30  22  73 N13       30.39S WCI  20
LAND O LAKES   PTSUNNY   31  22  71 N10G25    30.41S WCI  22
PHILLIPS       CLOUDY    32  23  69 N13G18    30.43R WCI  22
TOMAHAWK       PTSUNNY   32  22  66 N9G18     30.41F WCI  24
MEDFORD        PTSUNNY   36  20  51 N15G24    30.40F WCI  26
MERRILL        CLOUDY    34  21  59 NE16G24   30.40S WCI  23
$$

WIZ029-030-035-036-043>047-312000-
CENTRAL WISCONSIN

CITY           SKY/WX    TMP DP  RH WIND       PRES   REMARKS
WAUSAU         CLOUDY    34  19  54 N17G25    30.38F WCI  23
MOSINEE        PTSUNNY   34  19  55 N21G26    30.40S WCI  22
MARSHFIELD     PTSUNNY   38  19  46 N14G25    30.40S WCI  30
STEVENS POINT  CLOUDY    33  17  51 N17G30    30.39S WCI  23
WAUPACA        PTSUNNY   39  20  46 N16G24    30.36S WCI  30
WAUTOMA        NOT AVBL
WISC RAPIDS    PTSUNNY   37  18  46 N13G26    30.40F WCI  29
CAMP DOUGLAS   NOT AVBL
$$

WIZ011>013-019>022-031-037>040-048>050-312000-
NORTHEAST WISCONSIN

CITY           SKY/WX    TMP DP  RH WIND       PRES   REMARKS
ANTIGO         CLOUDY    32  20  62 N16G28    30.37R WCI  21
SHAWANO        CLOUDY    40  21  47 N18G28    30.35S WCI  30
OCONTO         PTSUNNY   38  21  50 N22G30    30.33S WCI  28
STURGEON BAY   CLOUDY    36  21  55 N28G37    30.30S WCI  23
GREEN BAY      PTSUNNY   39  21  48 N23G37    30.33R WCI  28
MANITOWOC      NOT AVBL
APPLETON       PTSUNNY   37  19  48 N26G35    30.33R WCI  26
CLINTONVILLE   CLOUDY    37  18  44 N20G29    30.35S WCI  27
OSHKOSH        CLOUDY    38  20  48 N23G33    30.32R WCI  27
$$

WIZ032>034-041-042-053>061-312000-
SOUTHWEST WISCONSIN

CITY           SKY/WX    TMP DP  RH WIND       PRES   REMARKS
LA CROSSE      PTSUNNY   41  20  43 N14G22    30.45S
SPARTA         MOSUNNY   40  16  38 N17G23    30.42F WCI  31
VIROQUA        MOSUNNY   38  20  46 N20G26    30.40R WCI  29
BOSCOBEL       MOSUNNY   42  18  37 N13G22    30.41S
PRAIRIE DU CHI MOSUNNY   40  18  40 NW17G25   30.42S WCI  31
PLATTEVILLE    MOSUNNY   40  19  43 N20G31    30.36S WCI  30
$$

WIZ056-057-062-063-064-067-068-312000-
SOUTH CENTRAL WISCONSIN

CITY           SKY/WX    TMP DP  RH WIND       PRES   REMARKS
REEDSBURG      CLOUDY    36  20  53 N17G23    30.38S WCI  25
BARABOO/DELLS  CLOUDY    37  18  47 N16G22    30.37S WCI  27
LONE ROCK      NOT AVBL
MINERAL POINT  SUNNY     41  18  38 N20G36    30.34R
MADISON        PTSUNNY   38  18  44 N25G32    30.35R WCI  27
MIDDLETON      CLOUDY    38  19  44 N23       30.35R WCI  28
WATERTOWN      CLOUDY    37  21  54 N22       30.29R WCI  26
MONROE         CLOUDY    37  23  56 N20G35    30.30S WCI  27
JANESVILLE     CLOUDY    39  19  45 N32G39    30.28S WCI  27
$$

WIZ051-052-058>065-066-070>072-312000-
SOUTHEAST WISCONSIN

CITY           SKY/WX    TMP DP  RH WIND       PRES   REMARKS
MILWAUKEE      PTSUNNY   38  23  55 N31G43    30.23R WCI  25
WAUKESHA       CLOUDY    36  19  51 N18G29    30.27R WCI  25
MILWAUKEE/TIMM NOT AVBL
RACINE         CLOUDY    39  25  57 N23G40    30.23R WCI  28
BURLINGTON     CLOUDY    36  21  53 N29G41    30.25R WCI  23
KENOSHA        CLOUDY    38  23  55 N26G37    30.21R WCI  26
FOND DU LAC    CLOUDY    37  20  50 N20G35    30.33R WCI  27
SHEBOYGAN      CLOUDY    37  21  52 N18G32    30.27R WCI  27
WEST BEND      CLOUDY    36  21  55 N21G33    30.27R WCI  24
JUNEAU         CLOUDY    36  20  51 N23G33    30.31R WCI  24
$$

LSZ147-162-312000-
LAKE SUPERIOR

STATION/POSITION TIME  TEMP    WIND        PRES    WAVE
                       AIR SEA DIR/SP/G            HT/PER
                 (UTC) (F)     (DEG/KT/KT) (MB)    (FT/S)
W MID LAKE BUOY  1750   33 43  350/ 14/ 17 1033.8F   7/ 8
DEVILS ISLAND    1800   33      10/  9/ 11 1034.9F
PORT WING        1800   35      30/  7/ 13 1034.2
SAXON HARBOR     1800   36      20/ 17/ 21 1032.8
$$

LMZ867-665-643>646-312000-
LAKE MICHIGAN

STATION/POSITION TIME  TEMP    WIND        PRES    WAVE
                       AIR SEA DIR/SP/G            HT/PER
                 (UTC) (F)     (DEG/KT/KT) (MB)    (FT/S)
CHAMBERS ISLAND  1800   37     340/ 29/ 36 1026.4R
N MID LAKE BUOY  1750   36 49   10/ 27/ 37 1024.7R   8/ 7
NORTHPORT PIER   1813   36     360/ 31/ 35 1026.1R
SISTER BAY       1828          350/ 26/ 38   N/A
KEWAUNEE LAKESHO 1800   36     360/ 15/ 26 1024.5R
SHEBOYGAN LAKESH 1800   37 48  350/ 31/ 34 1025.3R
PORT WASHINGTON  1800   39      10/ 17/ 28 1024.7R
ATWATER BUOY     1800   40      10/ 31     1023.4R
MILWAUKEE LAKESH 1800   38     340/ 21/ 27   N/A
S MID LAKE BUOY  1750   39 49  350/ 37/ 45 1018.7R  17/11
KENOSHA   LAKESH 1800   38     350/ 27/ 38 1021.7R
$$

TC  - TEMPERATURE IN CELSIUS
VSB - VISIBILITY IN STATUTE MILES
WCI - WIND CHILL INDEX
HX  - HEAT INDEX




USA.gov is the U.S. government's official web portal to all federal, state and local government web resources and services.